DELTA 1 DEB, 10718

Orbit data source: Space-Track

DELTA 1 DEB, 10718 is space debris in SSO originally from a launch on Thu, 29 Jul 1976 UTC launched from the Air Force Western Test Range (AFWTR). Debris objects in space refer to the collection of defunct objects orbiting the Earth. Examples of debris include non-operational satellites, rocket bodies, and fragments generated from explosions, collisions, or faulty payload assembly.

Loading next visibility...
Identifier
10718, 1976-077AP
Orbit
SSO
Country
Flag of USUS
Related business
Manufacturer
Unknown
Mission
Spacecraft
Bus & Motor
Unknown
Mass
Unknown
Launch date (UTC)
1976-07-29 (50 years ago)
Launch vehicle
Unknown
Launch site
Air Force Western Test Range (AFWTR)
Object type
Payload
Rocket body
Debris
Shape & HBR
Unknown shape, 0.1 m
Radar Cross Section
Medium (>0.1 m² and <1 m²)

Expand to show TLE details & history
Last TLE update: 22 hours ago

TLE from 22 hours ago
0 DELTA 1 DEB
1 10718U 76077AP  26255.54232023  .00000017  00000-0  43423-3 0  9992
2 10718 101.6053 278.7495 0052145 267.5904 246.6994 12.42898839271629
Epoch: 2026-09-12T13:00Z
TLE epoch observation values (Epoch: 2026-09-12T13:00:56.467Z)
Latitude
25.71251°
Longitude
-82.38805°
Altitude
1,513.577 km
Speed
7.103 km/s
True Right ascension
06h 57m 35s
True Declination
25° 35' 28"
Sunlit
Object was in daylight at epoch
Visualization orbit readout
Latitude
Unknown
Longitude
Unknown
Altitude
Unknown
Speed
Unknown
Apparent Right ascension
Unknown
Apparent Declination
Unknown
Sunlit
N/A
Visualization observer readout
Local Sidereal Time
03:06:55
Azimuth
Unknown
Elevation
Unknown
Doppler factor
Unknown
Orbital elements
Apogee altitude
1,532.924 km
Perigee altitude
1,450.848 km
Semi-major axis
7,870.023 km
Eccentricity
0.00521
Inclination
101.6053°
RAAN
278.7495°
Arg. of periapsis
267.5904°
True anomaly
246.15202°
Mean anomaly
246.6994°
Eccentric anomaly
246.42557°
Mean motion
3.1087 °/min
Orbital period
115.8 mins
BSTAR
0.00043423
Loading maneuver chart data...
Computing Atmospheric mass density...
Loading historical data...
Loading historical data...
Loading historical data...
Loading historical data...
Loading historical data...
Loading historical data...
Loading historical data...

Documentation

Showing up to 5 results
|